This is the latest recevied weather packets stored in our database for station/object KC5CAM-13. If no packets are shown the sender has not sent any weather packets the latest 10 day(s).
| Time | Temp. | Humidity | Pressure | Rain* | Wind** | Luminosity | Snow |
|---|---|---|---|---|---|---|---|
| 1776964063 | 24.44° C | 80% | 1010.6 hPa | 0 mm | - | 586 W/m² | - |
| 1776963758 | 23.89° C | 82% | 1010.6 hPa | 0 mm | - | 576 W/m² | - |
| 1776963458 | 23.89° C | 83% | 1010.4 hPa | 0 mm | - | 620 W/m² | - |
| 1776963156 | 23.89° C | 81% | 1010.9 hPa | 0 mm | - | 422 W/m² | - |
| 1776962856 | 23.33° C | 82% | 1010.9 hPa | 0 mm | - | 438 W/m² | - |
| 1776962553 | 23.33° C | 83% | 1011.1 hPa | 0 mm | - | 541 W/m² | - |
| 1776962251 | 22.78° C | 84% | 1011 hPa | 0 mm | - | 819 W/m² | - |
| 1776961947 | 22.78° C | 83% | 1011.1 hPa | 0 mm | - | 163 W/m² | - |
| 1776961645 | 22.78° C | 83% | 1011 hPa | 0 mm | - | 208 W/m² | - |
| 1776961344 | 22.78° C | 84% | 1011.2 hPa | 0 mm | - | 261 W/m² | - |
| 1776961039 | 22.78° C | 83% | 1011.3 hPa | 0 mm | - | 312 W/m² | - |
| 1776960735 | 23.33° C | 83% | 1011.5 hPa | 0 mm | - | 309 W/m² | - |
| 1776960435 | 23.33° C | 83% | 1011.5 hPa | 0 mm | - | 457 W/m² | - |
| 1776960134 | 22.78° C | 85% | 1011.4 hPa | 0 mm | - | 416 W/m² | - |
| 1776959831 | 22.22° C | 85% | 1011.3 hPa | 0 mm | - | 560 W/m² | - |
| 1776959527 | 22.22° C | 86% | 1011.3 hPa | 0 mm | - | 438 W/m² | - |
| 1776959223 | 21.67° C | 86% | 1011.3 hPa | 0 mm | - | 198 W/m² | - |
| 1776958918 | 21.67° C | 86% | 1011.5 hPa | 0 mm | - | 219 W/m² | - |
| 1776958617 | 21.67° C | 86% | 1011.5 hPa | 0 mm | - | 192 W/m² | - |
| 1776958316 | 21.67° C | 86% | 1011.6 hPa | 0 mm | - | 173 W/m² | - |
| 1776958011 | 21.67° C | 87% | 1011.5 hPa | 0 mm | - | 179 W/m² | - |
| 1776957708 | 21.67° C | 87% | 1011.9 hPa | 0 mm | - | 150 W/m² | - |
| 1776957402 | 21.67° C | 87% | 1011.8 hPa | 0 mm | - | 113 W/m² | - |
| 1776957098 | 21.11° C | 87% | 1011.9 hPa | 0 mm | - | 111 W/m² | - |
| 1776956792 | 21.11° C | 87% | 1012 hPa | 0 mm | - | 76 W/m² | - |
* Rain latest hour (hover to see other rain measurements)
** Current wind speed in m/s (hover to see current wind gust speed)